Regional Weather Roundup
Issued by NWS

Home | Current Version | Previous Version | Graphics & Text | Print | Product List | Glossary On
Versions: 1 2 3 4 5 6 7 8 9 10 11 12 13 14 15 16 17 18 19 20 21 22 23 24 25 26 27 28 29 30 31 32 33 34 35 36 37 38 39 40 41 42 43 44 45 46 47 48 49 50
000
ASUS45 KBOU 261107
RWRCO

WEATHER ROUNDUP FOR COLORADO
NATIONAL WEATHER SERVICE DENVER/BOULDER CO
500 AM MDT THU MAR 26 2015

NOTE: "FAIR" INDICATES FEW OR NO CLOUDS BELOW 12000 FEET WITH NO
SIGNIFICANT WEATHER AND/OR OBSTRUCTIONS TO VISIBILITY.

COZ001>005-013-030-031-261200-
...NORTHWEST COLORADO...

CITY           SKY/WX    TMP DP  RH WIND       PRES   REMARKS
CRAIG          CLEAR     24  19  81 E3        30.36R
HAYDEN         CLEAR     25  18  74 E6        30.36R WCI  18
MEEKER         CLEAR     24  18  77 E6        30.37R WCI  17
MOUNT WERNER   NOT AVBL
STEAMBOAT SPGS CLEAR     20  19  93 CALM      30.36R
WALDEN         CLEAR     19  14  79 SE7       30.30R WCI  10
$$

COZ006>008-011-261200-
...WEST CENTRAL VALLEYS...

CITY           SKY/WX    TMP DP  RH WIND       PRES   REMARKS
GRAND JUNCTION CLEAR     28  17  63 E6        30.33F WCI  22
MONTROSE       CLEAR     27  17  66 SE7       30.37S WCI  19
EAGLE          CLEAR     21  19  93 E3        30.39F
RIFLE          CLEAR     24  17  74 E3        30.37F
DELTA          CLEAR     30  18  59 CALM      30.36S
NUCLA          CLEAR     32  14  47 SE6       30.37F WCI  26
$$

COZ017>023-064>068-261200-
...SOUTHWEST COLORADO...

CITY           SKY/WX    TMP DP  RH WIND       PRES   REMARKS
DURANGO        PTCLDY    25  14  63 NE3       30.26R
CORTEZ         CLEAR     26  13  57 E7        30.30R WCI  18
PAGOSA SPRINGS PTCLDY    26   9  48 CALM      30.27S
TELLURIDE      CLEAR     24  11  58 SE3       30.37S
WOLF CREEK PAS CLEAR     18   0  45 N12G20    30.34S WCI   5
$$

COZ009-010-012-014-032>034-037-058>063-261200-
...CENTRAL COLORADO...

CITY           SKY/WX    TMP DP  RH WIND       PRES   REMARKS
ASPEN          PTCLDY    20  13  74 SW8       30.35F WCI  10
BUENA VISTA    CLEAR     31   9  40 N16G25    30.26S WCI  20
COPPER MTN     MOCLDY    16   9  73 W23       30.29F WCI  -2
BERTHOUD PASS  LGT SNOW   7   1  78 MISG      30.22R
COTTONWOOD PAS CLEAR     28   7  40 S5        30.25F WCI  23
GUNNISON       CLEAR     21  12  68 CALM      30.36S
KREMMLING      PTCLDY    21  16  79 E3        30.36R
LEADVILLE      CLEAR     10   5  80 N8        30.30F WCI  -2
SALIDA         CLEAR     25  17  70 CALM      30.35S
SUNLIGHT       CLEAR     21  14  73 NW3       30.38F
WILKERSON PASS PTCLDY    16   9  73 W5        30.25F WCI   9
$$

COZ069>075-261200-
...SAN LUIS VALLEY/SANGRE DE CRISTO MOUNTAINS...

CITY           SKY/WX    TMP DP  RH WIND       PRES   REMARKS
ALAMOSA        PTCLDY    16  10  77 CALM      30.29R
LA VETA PASS   PTCLDY    18  10  73 S6        30.25S WCI   9
SAGUACHE       CLEAR     30  10  43 N12       30.29S WCI  21
$$

COZ035-036-038>040-261200-
...NORTHERN COLORADO FRONT RANGE...

CITY           SKY/WX    TMP DP  RH WIND       PRES   REMARKS
DENVER INTL AP PTCLDY    32  23  69 SW12      30.17F WCI  23
DMNS CITY PARK   N/A     32  21  64 S6        30.18F WCI  27
AURORA         PTCLDY    31  24  74 SW10      30.18F WCI  22
FRONT RANGE AP CLEAR     34  27  75 SW9       30.18F WCI  26
ERIE MUNI ARPT CLEAR     27  25  94 CALM      30.18F
BOULDER MUN AP CLEAR     30  30 100 NE5       30.18R WCI  25
CENTENNIAL     CLEAR     33  16  49 W7        30.18F WCI  27
BROOMFIELD     CLEAR     37  18  44 NW14G21   30.18S
FORT COLLINS   CLOUDY    28  28 100 CALM      30.19S VSB<1/4
LONGMONT       CLEAR     28  26  93 CALM      30.21S
$$

COZ041-046-047-076>085-087-088-261200-
...PIKES PEAK/PALMER DIVIDE AND SOUTHERN FOOTHILLS...

CITY           SKY/WX    TMP DP  RH WIND       PRES   REMARKS
COLO. SPRINGS  CLEAR     24  19  81 N6        30.22F WCI  17
A. F. ACADEMY  PTCLDY    19  15  84 N9        30.20F WCI   8
ELLICOTT       CLEAR    N/A N/A N/A CALM      30.21S
FALCON         CLEAR     24  16  71 NW7       30.21F WCI  16
FORT CARSON    PTCLDY    25  20  80 NW6       30.20F WCI  18
LIMON          CLEAR     22  20  92 N7        30.20S WCI  13
MONUMENT HILL  CLEAR     25  14  63 SW8       30.18F WCI  16
TRINIDAD       PTCLDY    26  20  77 SW16      30.26R WCI  14
$$

COZ042>045-048>051-090-091-261200-
...NORTHEAST COLORADO...

CITY           SKY/WX    TMP DP  RH WIND       PRES   REMARKS
GREELEY ARPT   PTCLDY    27  19  74 W3        30.18R
AKRON          CLEAR     30  28  92 SW10      30.17F WCI  21
BURLINGTON     PTCLDY    28  25  88 W8        30.20S WCI  20
WRAY           MOCLDY    28  27  97 W3        30.19S
STERLING       CLEAR     28  27  93 SW6       30.18R WCI  22
HOLYOKE        CLEAR     27  23  86 CALM      30.18S
FORT MORGAN    CLEAR     26  19  73 W3        30.19R
$$

COZ086-089-092>099-261200-
...SOUTHEAST COLORADO...

CITY           SKY/WX    TMP DP  RH WIND       PRES   REMARKS
PUEBLO         CLEAR     27  25  92 SW3       30.24F
LA JUNTA       PTCLDY    31  27  85 SW15      30.23F WCI  20
LAMAR          CLEAR     31  29  92 SW10      30.22F WCI  22
SPRINGFIELD      N/A     29  26  89 W10       30.24S WCI  20
$$



USA.gov is the U.S. government's official web portal to all federal, state and local government web resources and services.